QPF
0.00 0.00 0.00 0.00 0.00 0.00 0.00 0.00 0.00 0.00 0.00 0.00 0.00 0.00 0.00 0.00 0.00 0.00 0.00 0.00 0.00 0.00 0.00 0.00 0.00 0.00 0.00 0.00 0.00 0.00 0.00 0.00 0.00 0.00 0.00 0.00 0.00 0.00 0.00 0.00 0.00 0.00
0.00 0.00 0.00 0.00 0.00 0.00 0.00 0.00 0.00 0.00 0.00 0.00 0.00 0.00 0.00 0.00 0.00 0.00 0.00 0.00 0.00 0.00 0.00 0.00 0.00 0.00 0.00 0.00 0.00 0.00 0.00 0.00 0.00 0.00 0.00 0.00 0.00 0.00 0.00 0.00 0.00 0.00
0.00 0.00 0.00 0.00 0.00 0.00 0.00 0.00 0.00 0.00 0.00 0.00 0.00 0.00 0.00 0.00 0.00 0.00 0.00 0.00 0.00 0.00 0.00 0.00 0.00 0.00 0.00 0.00 0.00 0.00 0.00 0.00 0.00 0.00 0.00 0.00 0.00 0.00 0.00 0.00 0.00 0.00
0.00 0.00 0.00 0.00 0.00 0.00 0.00 0.00 0.00 0.00 0.00 0.00 0.00 0.00 0.00 0.00 0.00 0.00 0.00 0.00 0.00 0.00 0.00 0.00 0.00 0.00 0.00 0.00 0.00 0.00 0.00 0.00 0.00 0.00 0.00 0.00 0.00 0.00 0.00 0.00 0.00 0.00
0.00 0.00 0.00 0.00 0.00 0.00 0.00 0.00 0.00 0.00 0.00 0.00 0.00 0.00 0.00 0.00 0.00 0.00 0.00 0.00 0.00 0.00 0.00 0.00 0.00 0.00 0.00 0.00 0.00 0.00 0.00 0.00 0.00 0.00 0.00 0.00 0.00 0.00 0.00 0.00 0.00 0.00
0.00 0.00 0.00 0.00 0.00 0.00 0.00 0.00 0.00 0.00 0.00 0.00 0.00 0.00 0.00 0.00 0.00 0.00 0.00 0.00 0.00 0.00 0.00 0.00 0.00 0.00 0.00 0.00 0.00 0.00 0.00 0.00 0.00 0.00 0.00 0.00 0.00 0.00 0.00 0.00 0.00 0.00
0.00 0.00 0.00 0.00 0.00 0.00 0.00 0.00 0.00 0.00 0.00 0.00 0.00 0.00 0.00 0.00 0.00 0.00 0.00 0.00 0.00 0.00 0.00 0.00 0.00 0.00 0.00 0.00 0.00 0.00 0.00 0.00 0.00 0.00 0.00 0.00 0.00 0.00 0.00 0.00 0.00 0.00
0.00 0.00 0.00 0.00 0.00 0.00 0.00 0.00 0.00 0.00 0.00 0.00 0.00 0.00 0.00 0.00 0.00 0.00 0.00 0.00 0.00 0.00 0.00 0.00 0.00 0.00 0.00 0.00 0.00 0.00 0.00 0.00 0.00 0.00 0.00 0.00 0.00 0.00 0.00 0.00 0.00 0.00
0.00 0.00 0.00 0.00 0.00 0.00 0.00 0.00 0.00 0.00 0.00 0.00 0.00 0.00 0.00 0.00 0.00 0.00 0.00 0.00 0.00 0.00 0.00 0.00 0.00 0.00 0.00 0.00 0.00 0.00 0.00 0.00 0.00 0.00 0.00 0.00 0.00 0.00 0.00 0.00 0.00 0.00
0.00 0.00 0.00 0.00 0.00 0.00 0.00 0.00 0.00 0.00 0.00 0.00 0.00 0.00 0.00 0.00 0.00 0.00 0.00 0.00 0.00 0.00 0.00 0.00 0.00 0.00 0.00 0.00 0.00 0.00 0.00 0.00 0.00 0.00 0.00 0.00 0.00 0.00 0.00 0.00 0.00 0.00
0.00 0.00 0.00 0.00 0.00 0.00 0.00 0.00 0.00 0.00 0.00 0.00 0.00 0.00 0.00 0.00 0.00 0.00 0.00 0.00 0.00 0.00 0.00 0.00 0.00 0.00 0.00 0.00 0.00 0.00 0.00 0.00 0.00 0.00 0.00 0.00 0.00 0.00 0.00 0.00 0.00 0.00
0.00 0.00 0.00 0.00 0.00 0.00 0.00 0.00 0.00 0.00 0.00 0.00 0.00 0.00 0.00 0.00 0.00 0.00 0.00 0.00 0.00 0.00 0.00 0.00 0.00 0.00 0.00 0.00 0.00 0.00 0.00 0.00 0.00 0.00 0.00 0.00 0.00 0.00 0.00 0.00 0.00 0.00
0.00 0.00 0.00 0.00 0.00 0.00 0.00 0.00 0.00 0.00 0.00 0.00 0.00 0.00 0.00 0.00 0.00 0.00 0.00 0.00 0.00 0.00 0.00 0.00 0.00 0.00 0.00 0.00 0.00 0.00 0.00 0.00 0.00 0.00 0.00 0.00 0.00 0.00 0.00 0.00 0.00 0.00
0.00 0.00 0.00 0.00 0.00 0.00 0.00 0.00 0.00 0.00 0.00 0.00 0.00 0.00 0.00 0.00 0.00 0.00 0.00 0.00 0.00 0.00 0.00 0.00 0.00 0.00 0.00 0.00 0.00 0.00 0.00 0.00 0.00 0.00 0.00 0.00 0.00 0.00 0.00 0.00 0.00 0.00
0.00 0.00 0.00 0.00 0.00 0.00 0.00 0.00 0.00 0.00 0.00 0.00 0.00 0.00 0.00 0.00 0.00 0.00 0.00 0.00 0.00 0.00 0.00 0.00 0.00 0.00 0.00 0.00 0.00 0.00 0.00 0.00 0.00 0.00 0.00 0.00 0.00 0.00 0.00 0.00 0.00 0.00
0.00 0.00 0.00 0.00 0.00 0.00 0.00 0.00 0.00 0.00 0.00 0.00 0.00 0.00 0.00 0.00 0.00 0.00 0.00 0.00 0.00 0.00 0.00 0.00 0.00 0.00 0.00 0.00 0.00 0.00 0.00 0.00 0.00 0.00 0.00 0.00 0.00 0.00 0.00 0.00 0.00 0.00
0.00 0.00 0.00 0.00 0.00 0.00 0.00 0.00 0.00 0.00 0.00 0.00 0.00 0.00 0.00 0.00 0.00 0.00 0.00 0.00 0.00 0.00 0.00 0.00 0.00 0.00 0.00 0.00 0.00 0.00 0.00 0.00 0.00 0.00 0.00 0.00 0.00 0.00 0.00 0.00 0.00 0.00
0.00 0.00 0.00 0.00 0.00 0.00 0.00 0.00 0.00 0.00 0.00 0.00 0.00 0.00 0.00 0.00 0.00 0.00 0.00 0.00 0.00 0.00 0.00 0.00 0.00 0.00 0.00 0.00 0.00 0.00 0.00 0.00 0.00 0.00 0.00 0.00 0.00 0.00 0.00 0.00 0.00 0.00
0.00 0.00 0.00 0.00 0.00 0.00 0.00 0.00 0.00 0.00 0.00 0.00 0.00 0.00 0.00 0.00 0.00 0.00 0.00 0.00 0.00 0.00 0.00 0.00 0.00 0.00 0.00 0.00 0.00 0.00 0.00 0.00 0.00 0.00 0.00 0.00 0.00 0.00 0.00 0.00 0.00 0.00
0.00 0.00 0.00 0.00 0.00 0.00 0.00 0.00 0.00 0.00 0.00 0.00 0.00 0.00 0.00 0.00 0.00 0.00 0.00 0.00 0.00 0.00 0.00 0.00 0.00 0.00 0.00 0.00 0.00 0.00 0.00 0.00 0.00 0.00 0.00 0.00 0.00 0.00 0.00 0.00 0.00 0.00
0.00 0.00 0.00 0.00 0.00 0.00 0.00 0.00 0.00 0.00 0.00 0.00 0.00 0.00 0.00 0.00 0.00 0.00 0.00 0.00 0.00 0.00 0.00 0.00 0.00 0.00 0.00 0.00 0.00 0.00 0.00 0.00 0.00 0.00 0.00 0.00 0.00 0.00 0.00 0.00 0.00 0.00
0.00 0.00 0.00 0.00 0.00 0.00 0.00 0.00 0.00 0.00 0.00 0.00 0.00 0.00 0.00 0.00 0.00 0.00 0.00 0.00 0.00 0.00 0.00 0.00 0.00 0.00 0.00 0.00 0.00 0.00 0.00 0.00 0.00 0.00 0.00 0.00 0.00 0.00 0.00 0.00 0.00 0.00
0.00 0.00 0.00 0.00 0.00 0.00 0.00 0.00 0.00 0.00 0.00 0.00 0.00 0.00 0.00 0.00 0.00 0.00 0.00 0.00 0.00 0.00 0.00 0.00 0.00 0.00 0.00 0.00 0.00 0.00 0.00 0.00 0.00 0.00 0.00 0.00 0.00 0.00 0.00 0.00 0.00 0.00
0.00 0.00 0.00 0.00 0.00 0.00 0.00 0.00 0.00 0.00 0.00 0.00 0.00 0.00 0.00 0.00 0.00 0.00 0.00 0.00 0.00 0.00 0.00 0.00 0.00 0.00 0.00 0.00 0.00 0.00 0.00 0.00 0.00 0.00 0.00 0.00 0.00 0.00 0.00 0.00 0.00 0.00
0.00 0.00 0.00 0.00 0.00 0.00 0.00 0.00 0.00 0.00 0.00 0.00 0.00 0.00 0.00 0.00 0.00 0.00 0.00 0.00 0.00 0.00 0.00 0.00 0.00 0.00 0.00 0.00 0.00 0.00 0.00 0.00 0.00 0.00 0.00 0.00 0.00 0.00 0.00 0.00 0.00 0.00
0.00 0.00 0.00 0.00 0.00 0.00 0.00 0.00 0.00 0.00 0.00 0.00 0.00 0.00 0.00 0.00 0.00 0.00 0.00 0.00 0.00 0.00 0.00 0.00 0.00 0.00 0.00 0.00 0.00 0.00 0.00 0.00 0.00 0.00 0.00 0.00 0.00 0.00 0.00 0.00 0.00 0.00
MSLP
1026.53 1026.75 1027.01 1027.31 1027.67 1027.97 1028.19 1028.39 1028.57 1028.69 1028.83 1029.05 1029.31 1029.69 1030.01 1030.35 1030.55 1030.67 1030.83 1030.97 1031.07 1031.15 1031.23 1031.27 1031.29 1031.31 1031.25 1031.19 1031.19 1030.97 1030.97 1031.13 1031.15 1031.19 1031.19 1031.09 1030.97 1031.05 1031.07 1031.01 1030.93 1030.77
1026.81 1027.05 1027.31 1027.63 1027.97 1028.27 1028.47 1028.59 1028.75 1028.89 1029.13 1029.35 1029.61 1029.93 1030.29 1030.55 1030.73 1030.89 1031.03 1031.11 1031.23 1031.35 1031.43 1031.49 1031.55 1031.61 1031.59 1031.49 1031.49 1031.31 1031.27 1031.33 1031.39 1031.33 1031.39 1031.27 1031.13 1031.05 1031.03 1031.05 1030.95 1030.91
1027.15 1027.37 1027.61 1027.87 1028.23 1028.57 1028.75 1028.91 1029.01 1029.17 1029.37 1029.65 1029.85 1030.11 1030.51 1030.75 1030.91 1031.05 1031.17 1031.27 1031.31 1031.45 1031.53 1031.61 1031.69 1031.73 1031.79 1031.75 1031.65 1031.41 1031.51 1031.53 1031.51 1031.47 1031.39 1031.17 1031.17 1031.23 1031.13 1031.03 1030.95 1030.99
1027.37 1027.61 1027.91 1028.25 1028.55 1028.81 1028.99 1029.15 1029.37 1029.53 1029.69 1029.83 1030.11 1030.45 1030.71 1030.89 1031.01 1031.17 1031.33 1031.35 1031.43 1031.51 1031.63 1031.71 1031.79 1031.83 1031.85 1031.79 1031.69 1031.45 1031.51 1031.45 1031.55 1031.61 1031.43 1031.17 1031.11 1031.17 1031.21 1031.13 1031.09 1031.05
1027.67 1027.95 1028.21 1028.51 1028.81 1029.01 1029.17 1029.33 1029.47 1029.57 1029.81 1030.13 1030.39 1030.53 1030.67 1030.81 1030.91 1031.07 1031.19 1031.31 1031.37 1031.51 1031.59 1031.69 1031.79 1031.87 1031.89 1031.83 1031.71 1031.59 1031.55 1031.43 1031.55 1031.71 1031.59 1031.43 1031.19 1031.19 1031.27 1031.27 1031.25 1031.19
1027.95 1028.17 1028.49 1028.81 1029.03 1029.17 1029.31 1029.49 1029.67 1029.85 1030.03 1030.19 1030.31 1030.45 1030.63 1030.71 1030.87 1031.05 1031.19 1031.31 1031.43 1031.57 1031.67 1031.77 1031.87 1031.91 1031.93 1031.95 1031.79 1031.73 1031.75 1031.73 1031.79 1031.83 1031.71 1031.53 1031.35 1031.31 1031.35 1031.37 1031.29 1031.23
1028.17 1028.45 1028.79 1029.03 1029.21 1029.33 1029.51 1029.71 1029.85 1029.99 1030.11 1030.21 1030.35 1030.49 1030.63 1030.79 1030.99 1031.17 1031.31 1031.47 1031.61 1031.73 1031.87 1031.95 1032.05 1032.09 1032.07 1032.03 1031.93 1031.93 1031.89 1031.93 1031.97 1031.87 1031.79 1031.65 1031.53 1031.47 1031.33 1031.33 1031.33 1031.31
1028.29 1028.61 1028.91 1029.11 1029.29 1029.47 1029.67 1029.87 1029.99 1030.07 1030.13 1030.25 1030.47 1030.65 1030.75 1030.91 1031.07 1031.31 1031.47 1031.65 1031.77 1031.91 1032.03 1032.07 1032.17 1032.19 1032.15 1032.17 1032.11 1032.09 1032.01 1031.97 1032.01 1031.93 1031.85 1031.79 1031.65 1031.61 1031.47 1031.41 1031.43 1031.41
1028.39 1028.73 1028.97 1029.13 1029.31 1029.51 1029.73 1029.89 1030.03 1030.13 1030.19 1030.31 1030.51 1030.71 1030.83 1030.97 1031.21 1031.41 1031.67 1031.83 1031.89 1031.97 1032.05 1032.15 1032.21 1032.23 1032.21 1032.23 1032.23 1032.19 1032.15 1032.05 1031.97 1031.95 1031.95 1031.89 1031.83 1031.73 1031.65 1031.59 1031.59 1031.49
1028.37 1028.61 1028.83 1028.99 1029.19 1029.39 1029.71 1029.89 1030.07 1030.23 1030.35 1030.47 1030.57 1030.71 1030.93 1031.19 1031.43 1031.67 1031.79 1031.89 1031.97 1032.03 1032.07 1032.17 1032.23 1032.25 1032.27 1032.19 1032.21 1032.23 1032.19 1032.15 1032.07 1032.05 1032.01 1031.95 1031.91 1031.83 1031.77 1031.79 1031.75 1031.67
1028.23 1028.47 1028.65 1028.85 1029.05 1029.33 1029.67 1029.91 1030.13 1030.33 1030.49 1030.59 1030.69 1030.87 1031.07 1031.31 1031.53 1031.77 1031.93 1031.89 1032.05 1032.11 1032.19 1032.17 1032.23 1032.27 1032.27 1032.25 1032.21 1032.21 1032.25 1032.21 1032.19 1032.13 1032.07 1031.99 1031.95 1031.91 1031.87 1031.85 1031.79 1031.69
1028.05 1028.27 1028.49 1028.67 1028.95 1029.29 1029.65 1029.87 1030.11 1030.35 1030.55 1030.71 1030.85 1031.05 1031.23 1031.41 1031.63 1031.73 1031.91 1032.01 1032.05 1032.21 1032.21 1032.23 1032.23 1032.25 1032.27 1032.27 1032.27 1032.27 1032.27 1032.25 1032.21 1032.17 1032.09 1032.05 1031.97 1031.89 1031.85 1031.81 1031.79 1031.71
1027.83 1028.03 1028.23 1028.51 1028.87 1029.21 1029.55 1029.85 1030.09 1030.33 1030.57 1030.85 1030.99 1031.17 1031.39 1031.53 1031.65 1031.87 1031.95 1032.13 1032.17 1032.21 1032.23 1032.23 1032.27 1032.23 1032.23 1032.25 1032.27 1032.29 1032.31 1032.29 1032.21 1032.15 1032.11 1032.05 1031.95 1031.89 1031.83 1031.73 1031.63 1031.59
1027.57 1027.77 1028.05 1028.39 1028.73 1029.21 1029.57 1029.83 1030.11 1030.39 1030.69 1030.97 1031.17 1031.35 1031.49 1031.55 1031.71 1031.91 1032.07 1032.21 1032.27 1032.23 1032.19 1032.23 1032.21 1032.19 1032.17 1032.21 1032.27 1032.33 1032.35 1032.29 1032.27 1032.27 1032.21 1032.09 1031.99 1031.91 1031.79 1031.67 1031.57 1031.49
1027.27 1027.61 1027.99 1028.43 1028.87 1029.23 1029.57 1029.85 1030.09 1030.41 1030.77 1031.05 1031.25 1031.41 1031.51 1031.63 1031.85 1032.07 1032.23 1032.21 1032.25 1032.19 1032.19 1032.15 1032.19 1032.17 1032.19 1032.31 1032.51 1032.57 1032.57 1032.55 1032.49 1032.43 1032.35 1032.27 1032.11 1031.93 1031.75 1031.59 1031.45 1031.27
1027.09 1027.61 1028.07 1028.53 1028.89 1029.27 1029.55 1029.79 1030.05 1030.45 1030.81 1031.09 1031.31 1031.43 1031.57 1031.73 1032.01 1032.15 1032.23 1032.15 1032.09 1032.05 1032.05 1032.13 1032.13 1032.11 1032.27 1032.61 1032.77 1032.83 1032.85 1032.77 1032.65 1032.55 1032.47 1032.35 1032.17 1031.93 1031.65 1031.41 1031.25 1031.11
1027.07 1027.61 1028.07 1028.51 1028.81 1029.19 1029.51 1029.73 1030.03 1030.41 1030.75 1031.05 1031.29 1031.47 1031.67 1031.93 1032.11 1032.21 1032.15 1032.03 1031.99 1031.95 1031.99 1031.97 1032.01 1032.05 1032.27 1032.47 1032.57 1032.65 1032.73 1032.75 1032.71 1032.59 1032.49 1032.37 1032.19 1031.97 1031.67 1031.33 1031.07 1030.91
1026.89 1027.47 1027.95 1028.33 1028.69 1029.11 1029.49 1029.71 1030.01 1030.45 1030.77 1031.09 1031.31 1031.59 1031.71 1031.91 1032.03 1032.01 1031.93 1031.91 1031.91 1031.93 1031.99 1031.97 1031.93 1031.95 1032.15 1032.31 1032.45 1032.53 1032.59 1032.61 1032.59 1032.53 1032.41 1032.23 1032.03 1031.85 1031.59 1031.29 1031.03 1030.89
1026.61 1027.17 1027.67 1028.09 1028.53 1028.97 1029.41 1029.69 1030.09 1030.45 1030.75 1031.01 1031.25 1031.39 1031.63 1031.89 1031.91 1031.85 1031.85 1031.77 1031.87 1031.93 1031.95 1031.89 1031.93 1031.89 1032.05 1032.19 1032.33 1032.39 1032.43 1032.41 1032.39 1032.31 1032.23 1032.09 1031.93 1031.77 1031.51 1031.25 1031.11 1030.97
1026.29 1026.87 1027.35 1027.83 1028.37 1028.93 1029.39 1029.73 1030.05 1030.25 1030.51 1030.77 1031.09 1031.39 1031.61 1031.67 1031.65 1031.75 1031.71 1031.71 1031.81 1031.87 1031.93 1031.91 1031.87 1031.85 1031.97 1032.09 1032.19 1032.25 1032.25 1032.23 1032.19 1032.13 1032.01 1031.91 1031.83 1031.65 1031.41 1031.27 1031.15 1031.03
1026.03 1026.55 1027.01 1027.55 1028.17 1028.75 1029.21 1029.51 1029.77 1029.99 1030.33 1030.57 1030.91 1031.25 1031.43 1031.51 1031.47 1031.63 1031.63 1031.73 1031.89 1031.99 1032.07 1032.05 1031.89 1031.87 1031.91 1031.97 1032.07 1032.11 1032.09 1032.03 1032.01 1031.91 1031.81 1031.71 1031.59 1031.51 1031.39 1031.25 1031.15 1031.03
1025.57 1026.13 1026.65 1027.23 1027.91 1028.51 1028.91 1029.17 1029.43 1029.65 1030.07 1030.33 1030.67 1030.89 1031.09 1031.21 1031.19 1031.25 1031.55 1031.87 1032.03 1032.21 1032.31 1032.25 1031.97 1031.81 1031.81 1031.87 1031.95 1032.01 1031.97 1031.95 1031.93 1031.87 1031.79 1031.69 1031.57 1031.45 1031.35 1031.17 1031.05 1030.93
1025.07 1025.57 1026.11 1026.75 1027.47 1028.11 1028.51 1028.75 1029.05 1029.47 1029.89 1030.09 1030.53 1030.71 1030.99 1031.07 1031.11 1031.17 1031.39 1031.77 1032.05 1032.25 1032.37 1032.23 1032.01 1031.81 1031.79 1031.83 1031.91 1031.93 1031.91 1031.97 1031.97 1031.89 1031.77 1031.63 1031.45 1031.27 1031.17 1031.09 1030.99 1030.81
1024.49 1025.07 1025.69 1026.39 1027.09 1027.49 1027.81 1028.23 1028.65 1029.11 1029.55 1029.83 1030.19 1030.45 1030.63 1030.77 1030.87 1031.13 1031.37 1031.59 1031.91 1032.15 1032.19 1032.27 1032.03 1031.85 1031.79 1031.77 1031.81 1031.81 1031.85 1031.93 1031.91 1031.83 1031.69 1031.55 1031.39 1031.25 1031.13 1030.95 1030.75 1030.59
1024.09 1024.67 1025.25 1025.87 1026.43 1026.81 1027.37 1027.89 1028.21 1028.63 1029.17 1029.77 1030.01 1030.21 1030.43 1030.59 1030.73 1030.95 1031.37 1031.57 1031.83 1032.09 1032.13 1032.15 1032.13 1031.91 1031.69 1031.57 1031.57 1031.63 1031.69 1031.79 1031.81 1031.75 1031.65 1031.43 1031.25 1031.09 1030.89 1030.71 1030.47 1030.25
1023.85 1024.43 1024.87 1025.39 1025.87 1026.51 1027.21 1027.61 1028.07 1028.63 1029.15 1029.63 1030.03 1030.15 1030.35 1030.41 1030.77 1030.89 1031.29 1031.45 1031.61 1031.93 1032.13 1032.03 1031.99 1031.77 1031.59 1031.35 1031.31 1031.31 1031.27 1031.35 1031.39 1031.43 1031.31 1031.13 1030.99 1030.85 1030.69 1030.41 1030.15 1029.85
Thickness
5528 5524 5521 5516 5512 5507 5503 5499 5497 5493 5490 5486 5481 5476 5470 5466 5461 5457 5453 5449 5445 5441 5438 5435 5431 5429 5426 5423 5421 5419 5416 5413 5411 5407 5405 5403 5401 5399 5397 5394 5393 5391
5518 5515 5511 5507 5502 5498 5494 5490 5487 5484 5479 5475 5470 5466 5461 5455 5451 5447 5443 5438 5434 5431 5427 5423 5420 5417 5415 5412 5410 5408 5405 5402 5399 5397 5395 5393 5390 5389 5386 5384 5382 5380
5509 5505 5501 5497 5492 5488 5484 5480 5477 5473 5469 5464 5460 5455 5450 5445 5441 5436 5432 5428 5424 5420 5417 5413 5410 5407 5404 5402 5399 5397 5395 5391 5389 5387 5385 5383 5380 5378 5376 5374 5372 5369
5500 5497 5492 5487 5483 5478 5475 5471 5467 5463 5459 5454 5449 5444 5439 5434 5430 5426 5421 5418 5414 5410 5407 5403 5400 5397 5393 5391 5389 5387 5384 5382 5378 5375 5374 5373 5370 5368 5365 5362 5360 5358
5491 5487 5483 5478 5473 5468 5465 5461 5456 5452 5448 5443 5437 5433 5428 5423 5420 5416 5411 5408 5404 5400 5397 5394 5390 5387 5384 5381 5379 5377 5374 5372 5369 5365 5363 5362 5360 5358 5355 5352 5350 5347
5481 5477 5472 5467 5463 5458 5455 5450 5446 5441 5437 5432 5427 5423 5418 5414 5410 5406 5401 5398 5394 5390 5387 5383 5380 5377 5374 5372 5369 5367 5364 5361 5358 5355 5353 5351 5349 5347 5344 5341 5339 5336
5471 5467 5461 5456 5452 5448 5444 5439 5435 5430 5426 5422 5418 5413 5409 5404 5400 5396 5392 5387 5383 5379 5376 5373 5370 5367 5364 5362 5359 5356 5353 5350 5347 5345 5342 5340 5338 5335 5333 5330 5327 5324
5461 5456 5451 5446 5442 5437 5433 5428 5424 5420 5416 5413 5408 5403 5399 5395 5391 5386 5381 5377 5373 5369 5366 5363 5360 5358 5354 5352 5349 5346 5343 5340 5337 5335 5332 5329 5327 5323 5321 5318 5315 5312
5451 5446 5441 5436 5432 5427 5422 5418 5414 5411 5407 5403 5398 5394 5390 5386 5381 5376 5371 5367 5363 5359 5357 5354 5351 5348 5345 5342 5339 5336 5333 5330 5327 5324 5320 5317 5314 5311 5308 5305 5302 5299
5441 5437 5432 5427 5423 5417 5413 5409 5405 5401 5397 5393 5389 5385 5381 5376 5370 5366 5361 5357 5353 5350 5348 5345 5341 5339 5335 5332 5329 5325 5322 5319 5316 5313 5309 5305 5302 5298 5295 5292 5288 5285
5433 5428 5423 5418 5414 5409 5404 5399 5395 5391 5387 5383 5379 5375 5370 5365 5360 5356 5351 5348 5345 5341 5338 5335 5332 5328 5325 5322 5319 5315 5311 5308 5305 5300 5297 5293 5289 5286 5282 5279 5275 5272
5424 5419 5414 5409 5405 5399 5394 5390 5386 5381 5377 5373 5369 5365 5360 5356 5351 5346 5343 5339 5335 5331 5328 5325 5321 5318 5315 5311 5307 5304 5300 5296 5293 5289 5285 5281 5277 5274 5270 5267 5264 5260
5416 5410 5406 5401 5396 5391 5385 5381 5377 5372 5369 5364 5359 5355 5350 5346 5342 5337 5333 5329 5325 5322 5318 5315 5311 5308 5304 5300 5296 5293 5289 5285 5282 5277 5274 5270 5266 5263 5259 5256 5254 5250
5409 5403 5398 5393 5387 5382 5376 5372 5368 5364 5359 5355 5349 5345 5341 5337 5333 5328 5324 5319 5314 5311 5308 5304 5301 5297 5293 5290 5285 5282 5278 5274 5271 5266 5263 5260 5256 5253 5250 5247 5246 5243
5402 5395 5390 5384 5378 5373 5368 5364 5360 5355 5350 5346 5340 5336 5332 5328 5324 5318 5314 5310 5305 5302 5298 5294 5291 5287 5283 5279 5274 5270 5267 5263 5260 5257 5253 5250 5247 5244 5242 5240 5238 5236
5395 5388 5382 5376 5370 5365 5360 5356 5352 5347 5342 5337 5332 5328 5324 5319 5314 5308 5304 5301 5297 5293 5289 5284 5281 5277 5273 5268 5263 5260 5256 5253 5250 5247 5244 5241 5239 5237 5235 5234 5232 5230
5387 5381 5374 5368 5362 5357 5352 5348 5344 5339 5334 5329 5324 5320 5315 5310 5305 5300 5295 5291 5288 5283 5279 5276 5272 5268 5264 5259 5255 5250 5248 5245 5243 5240 5237 5234 5232 5230 5229 5228 5226 5223
5380 5373 5367 5361 5356 5349 5344 5340 5336 5331 5325 5321 5316 5311 5307 5301 5296 5291 5287 5283 5279 5275 5271 5267 5264 5261 5256 5251 5247 5243 5240 5238 5236 5233 5231 5228 5226 5224 5222 5220 5219 5216
5374 5368 5361 5355 5349 5342 5337 5333 5327 5323 5318 5313 5308 5303 5298 5293 5288 5283 5279 5275 5272 5267 5263 5260 5256 5253 5248 5244 5241 5237 5234 5232 5230 5227 5225 5223 5220 5218 5215 5214 5211 5208
5368 5362 5355 5349 5342 5335 5330 5325 5320 5315 5310 5305 5301 5295 5289 5285 5280 5276 5272 5268 5264 5260 5256 5252 5249 5245 5242 5238 5234 5232 5228 5226 5224 5222 5219 5217 5214 5211 5209 5207 5204 5201
5363 5357 5350 5343 5336 5329 5323 5318 5314 5309 5303 5298 5293 5287 5281 5277 5273 5269 5265 5261 5257 5252 5248 5245 5242 5239 5236 5232 5229 5225 5223 5221 5218 5216 5214 5211 5208 5205 5202 5200 5197 5194
5358 5352 5345 5339 5332 5324 5318 5313 5308 5303 5297 5291 5286 5280 5275 5271 5267 5264 5259 5254 5249 5245 5241 5237 5235 5233 5230 5226 5223 5219 5217 5215 5212 5209 5207 5205 5202 5199 5196 5193 5190 5187
5355 5348 5342 5335 5327 5320 5314 5308 5303 5297 5291 5285 5279 5273 5269 5265 5262 5258 5253 5247 5242 5238 5234 5231 5229 5227 5224 5220 5217 5214 5211 5209 5206 5203 5201 5198 5196 5194 5191 5188 5185 5182
5351 5344 5338 5330 5323 5317 5310 5304 5298 5292 5285 5279 5274 5269 5264 5260 5257 5252 5246 5241 5237 5231 5228 5226 5223 5221 5218 5215 5211 5208 5205 5202 5200 5197 5195 5193 5191 5189 5186 5183 5180 5177
5347 5339 5332 5325 5319 5313 5305 5298 5292 5286 5280 5273 5268 5263 5259 5255 5250 5246 5240 5235 5230 5226 5223 5221 5218 5215 5213 5210 5207 5203 5200 5197 5195 5192 5190 5188 5186 5183 5181 5178 5176 5174
5340 5333 5326 5320 5313 5306 5299 5292 5286 5280 5274 5267 5261 5257 5253 5249 5244 5239 5234 5230 5224 5221 5218 5215 5213 5211 5208 5206 5203 5200 5196 5194 5190 5188 5185 5183 5181 5178 5176 5174 5172 5170